QFA8 YPPH-YBBN

Flight info

Callsign QFA8
Flight time 1h 26m
Altitude 39000
Route AMANA5 AMANA Y31 LAKIR Y69 BOSLI Y67 KG J141 LEC Y94 PARRY DCT ENLIP ENLIP2X
Aircraft A35K/H-SDE2E3GHIJ3J4J5LM1ORWXY/LB1D1

Departure

Time 2026-05-05 19:41
Airport Perth International Airport (YPPH)

Arrival

Time 2026-05-05 21:07
Airport Brisbane International Airport (YBBN)
Time Latitude Longitude Altitude Speed Heading
2026-05-05 19:05 -31.93982 115.97443 63 ft 0 kts 172°
2026-05-05 19:28 -31.93972 115.97441 63 ft 2 kts 172°
2026-05-05 19:28 -31.93952 115.97438 67 ft 3 kts 173°
2026-05-05 19:29 -31.93927 115.97437 63 ft 4 kts 185°
2026-05-05 19:29 -31.93913 115.97443 67 ft 4 kts 272°
2026-05-05 19:29 -31.93915 115.97473 63 ft 4 kts 272°
2026-05-05 19:29 -31.93916 115.97501 63 ft 1 kts 272°
2026-05-05 19:30 -31.93917 115.97530 63 ft 4 kts 272°
2026-05-05 19:30 -31.93918 115.97561 63 ft 4 kts 272°
2026-05-05 19:30 -31.93918 115.97574 63 ft 0 kts 272°
2026-05-05 19:32 -31.93918 115.97573 63 ft 1 kts 272°
2026-05-05 19:32 -31.93918 115.97564 63 ft 3 kts 272°
2026-05-05 19:33 -31.93916 115.97529 63 ft 6 kts 272°
2026-05-05 19:33 -31.93914 115.97472 63 ft 8 kts 272°
2026-05-05 19:33 -31.93912 115.97396 65 ft 10 kts 272°
2026-05-05 19:33 -31.93941 115.97274 68 ft 14 kts 242°
2026-05-05 19:34 -31.93959 115.97159 66 ft 14 kts 284°
2026-05-05 19:34 -31.93943 115.97082 67 ft 10 kts 284°
2026-05-05 19:34 -31.93931 115.97022 73 ft 12 kts 284°
2026-05-05 19:35 -31.94008 115.96862 67 ft 16 kts 194°
2026-05-05 19:35 -31.94124 115.96828 65 ft 19 kts 194°
2026-05-05 19:35 -31.94260 115.96789 61 ft 21 kts 194°
2026-05-05 19:35 -31.94413 115.96745 65 ft 24 kts 194°
2026-05-05 19:36 -31.94523 115.96712 69 ft 12 kts 194°
2026-05-05 19:36 -31.94616 115.96685 69 ft 15 kts 194°
2026-05-05 19:36 -31.94731 115.96652 68 ft 18 kts 194°
2026-05-05 19:36 -31.94840 115.96620 68 ft 10 kts 194°
2026-05-05 19:37 -31.94920 115.96597 65 ft 13 kts 194°
2026-05-05 19:37 -31.95021 115.96568 68 ft 16 kts 194°
2026-05-05 19:37 -31.95141 115.96533 63 ft 19 kts 194°
2026-05-05 19:37 -31.95278 115.96494 65 ft 22 kts 193°
2026-05-05 19:38 -31.95418 115.96453 69 ft 14 kts 194°
2026-05-05 19:38 -31.95521 115.96422 69 ft 17 kts 194°
2026-05-05 19:38 -31.95645 115.96386 68 ft 20 kts 194°
2026-05-05 19:38 -31.95782 115.96346 67 ft 14 kts 194°
2026-05-05 19:39 -31.95870 115.96320 68 ft 14 kts 195°
2026-05-05 19:39 -31.95917 115.96228 65 ft 11 kts 272°
2026-05-05 19:39 -31.95905 115.96159 68 ft 9 kts 283°
2026-05-05 19:39 -31.95888 115.96077 65 ft 12 kts 283°
2026-05-05 19:40 -31.95854 115.95990 70 ft 9 kts 322°
2026-05-05 19:40 -31.95785 115.95995 68 ft 12 kts 14°
2026-05-05 19:40 -31.95641 115.96037 68 ft 49 kts 14°
2026-05-05 19:40 -31.95064 115.96205 65 ft 120 kts 14°
2026-05-05 19:41 -31.94048 115.96487 168 ft 172 kts 20°
2026-05-05 19:41 -31.92853 115.96805 811 ft 180 kts 19°
2026-05-05 19:41 -31.91614 115.97178 1611 ft 188 kts 20°
2026-05-05 19:41 -31.90350 115.97591 2397 ft 188 kts 21°
2026-05-05 19:42 -31.89067 115.98036 2916 ft 195 kts 20°
2026-05-05 19:42 -31.87772 115.98506 3460 ft 199 kts 20°
2026-05-05 19:42 -31.86604 115.99387 3979 ft 200 kts 50°
2026-05-05 19:42 -31.86019 116.00845 4544 ft 199 kts 80°
2026-05-05 19:43 -31.85800 116.02447 5108 ft 201 kts 87°
2026-05-05 19:43 -31.85687 116.04124 5408 ft 217 kts 87°
2026-05-05 19:43 -31.85545 116.05960 5769 ft 233 kts 86°
2026-05-05 19:43 -31.85380 116.07918 6192 ft 248 kts 86°
2026-05-05 19:44 -31.85236 116.09993 6653 ft 260 kts 92°
2026-05-05 19:44 -31.85265 116.12149 7240 ft 268 kts 91°
2026-05-05 19:44 -31.85081 116.14358 7896 ft 274 kts 83°
2026-05-05 19:44 -31.84743 116.16580 8605 ft 279 kts 81°
2026-05-05 19:45 -31.84349 116.18825 9333 ft 282 kts 80°
2026-05-05 19:45 -31.83930 116.21093 10055 ft 286 kts 79°
2026-05-05 19:45 -31.83494 116.23392 10666 ft 293 kts 79°
2026-05-05 19:45 -31.83036 116.25795 11018 ft 310 kts 79°
2026-05-05 19:46 -31.82546 116.28336 11327 ft 327 kts 79°
2026-05-05 19:46 -31.82026 116.31015 11630 ft 344 kts 79°
2026-05-05 19:46 -31.81480 116.33821 11915 ft 360 kts 79°
2026-05-05 19:46 -31.80910 116.36738 12248 ft 372 kts 79°
2026-05-05 19:47 -31.80324 116.39731 12776 ft 378 kts 79°
2026-05-05 19:47 -31.79730 116.42757 13387 ft 382 kts 79°
2026-05-05 19:47 -31.79130 116.45816 13992 ft 386 kts 79°
2026-05-05 19:47 -31.78523 116.48906 14555 ft 390 kts 79°
2026-05-05 19:48 -31.77909 116.52029 15084 ft 394 kts 79°
2026-05-05 19:48 -31.77290 116.55172 15644 ft 398 kts 79°
2026-05-05 19:48 -31.76659 116.58355 16191 ft 402 kts 78°
2026-05-05 19:48 -31.73700 116.65455 17488 ft 416 kts 52°
2026-05-05 19:49 -31.65615 116.75546 19512 ft 431 kts 46°
2026-05-05 19:49 -31.57154 116.85883 21420 ft 445 kts 50°
2026-05-05 19:49 -31.50715 116.98578 23450 ft 461 kts 63°
2026-05-05 19:49 -31.44836 117.12180 25487 ft 473 kts 63°
2026-05-05 19:50 -31.38730 117.26056 27472 ft 486 kts 63°
2026-05-05 19:50 -31.32429 117.40288 29427 ft 498 kts 63°
2026-05-05 19:50 -31.25972 117.54854 30926 ft 512 kts 63°
2026-05-05 19:50 -31.19835 117.70014 32426 ft 516 kts 65°
2026-05-05 19:51 -31.13698 117.85142 34025 ft 515 kts 64°
2026-05-05 19:51 -31.07509 118.00221 35366 ft 515 kts 64°
2026-05-05 19:51 -31.01302 118.15291 36495 ft 516 kts 64°
2026-05-05 19:51 -30.95065 118.30372 37576 ft 516 kts 64°
2026-05-05 19:52 -30.88809 118.45437 38524 ft 516 kts 64°
2026-05-05 19:52 -30.82625 118.60268 39217 ft 518 kts 64°
2026-05-05 19:52 -30.76290 118.75401 39395 ft 522 kts 64°
2026-05-05 19:52 -30.71537 118.91192 39402 ft 520 kts 85°
2026-05-05 19:53 -30.70696 119.07971 39396 ft 520 kts 89°
2026-05-05 19:53 -30.69221 119.41539 39399 ft 520 kts 88°
2026-05-05 19:54 -30.67603 119.75132 39397 ft 520 kts 88°
2026-05-05 19:54 -30.65899 120.08714 39398 ft 520 kts 88°
2026-05-05 19:55 -30.64110 120.42274 39406 ft 521 kts 88°
2026-05-05 19:55 -30.62232 120.75852 39406 ft 521 kts 88°
2026-05-05 19:55 -30.62233 120.92556 39405 ft 515 kts 106°
2026-05-05 19:56 -30.66926 121.08178 39408 ft 512 kts 114°
2026-05-05 19:56 -30.77025 121.39157 39401 ft 512 kts 114°
2026-05-05 19:56 -30.79412 121.55316 39399 ft 520 kts 95°
2026-05-05 19:57 -30.79944 121.72125 39401 ft 520 kts 94°
2026-05-05 19:57 -30.81023 122.05757 39401 ft 520 kts 94°
2026-05-05 19:58 -30.82035 122.39426 39410 ft 521 kts 94°
2026-05-05 19:58 -30.82961 122.73167 39407 ft 522 kts 94°
2026-05-05 19:59 -30.83802 123.06978 39410 ft 523 kts 93°
2026-05-05 19:59 -30.84554 123.40800 39409 ft 523 kts 93°
2026-05-05 20:00 -30.85214 123.74644 39406 ft 523 kts 93°
2026-05-05 20:00 -30.85768 124.08526 39405 ft 524 kts 92°
2026-05-05 20:01 -30.86237 124.42443 39393 ft 524 kts 92°
2026-05-05 20:01 -30.86605 124.75073 39394 ft 524 kts 92°
2026-05-05 20:02 -30.86901 125.09028 39387 ft 524 kts 91°
2026-05-05 20:02 -30.87108 125.42954 39395 ft 524 kts 91°
2026-05-05 20:03 -30.87226 125.76881 39380 ft 524 kts 91°
2026-05-05 20:03 -30.87240 126.10596 39381 ft 524 kts 91°
2026-05-05 20:04 -30.87158 126.44545 39383 ft 524 kts 90°
2026-05-05 20:04 -30.86988 126.78482 39373 ft 524 kts 90°
2026-05-05 20:05 -30.86729 127.12400 39376 ft 524 kts 90°
2026-05-05 20:05 -30.86382 127.46347 39371 ft 524 kts 90°
2026-05-05 20:06 -30.85946 127.80265 39368 ft 524 kts 89°
2026-05-05 20:06 -30.85455 128.14249 39374 ft 525 kts 90°
2026-05-05 20:07 -30.86022 128.48175 39359 ft 524 kts 91°
2026-05-05 20:07 -30.86388 128.82114 39358 ft 524 kts 91°
2026-05-05 20:08 -30.86671 129.16068 39344 ft 525 kts 91°
2026-05-05 20:08 -30.86866 129.50035 39346 ft 525 kts 90°
2026-05-05 20:09 -30.86971 129.84001 39348 ft 525 kts 90°
2026-05-05 20:09 -30.86988 130.17950 39345 ft 524 kts 90°
2026-05-05 20:10 -30.86916 130.51906 39344 ft 525 kts 90°
2026-05-05 20:10 -30.86756 130.85876 39337 ft 525 kts 90°
2026-05-05 20:11 -30.86507 131.19837 39337 ft 525 kts 89°
2026-05-05 20:11 -30.86169 131.53804 39334 ft 525 kts 89°
2026-05-05 20:12 -30.85745 131.87795 39332 ft 525 kts 89°
2026-05-05 20:12 -30.85210 132.21794 39330 ft 526 kts 89°
2026-05-05 20:13 -30.84591 132.55840 39329 ft 526 kts 89°
2026-05-05 20:13 -30.83884 132.89877 39319 ft 526 kts 88°
2026-05-05 20:14 -30.83092 133.23712 39321 ft 526 kts 88°
2026-05-05 20:14 -30.82200 133.57999 39322 ft 527 kts 88°
2026-05-05 20:15 -30.81232 133.91891 39318 ft 527 kts 88°
2026-05-05 20:15 -30.80171 134.26009 39311 ft 529 kts 88°
2026-05-05 20:16 -30.79018 134.60195 39309 ft 529 kts 87°
2026-05-05 20:16 -30.77774 134.94412 39309 ft 529 kts 87°
2026-05-05 20:17 -30.76439 135.28647 39302 ft 531 kts 87°
2026-05-05 20:17 -30.75010 135.62952 39295 ft 532 kts 86°
2026-05-05 20:18 -30.73490 135.97288 39294 ft 532 kts 86°
2026-05-05 20:18 -30.71877 136.31645 39283 ft 532 kts 86°
2026-05-05 20:19 -30.70171 136.66045 39278 ft 533 kts 85°
2026-05-05 20:19 -30.68373 137.00470 39273 ft 535 kts 85°
2026-05-05 20:20 -30.66479 137.34956 39261 ft 535 kts 85°
2026-05-05 20:20 -30.64494 137.69453 39257 ft 535 kts 85°
2026-05-05 20:21 -30.62429 138.03736 39257 ft 536 kts 84°
2026-05-05 20:21 -30.60259 138.38252 39269 ft 536 kts 84°
2026-05-05 20:22 -30.55659 138.72375 39275 ft 535 kts 78°
2026-05-05 20:22 -30.50471 139.06403 39262 ft 536 kts 77°
2026-05-05 20:23 -30.45187 139.40464 39269 ft 537 kts 77°
2026-05-05 20:23 -30.39807 139.74538 39269 ft 538 kts 77°
2026-05-05 20:24 -30.34329 140.08634 39255 ft 539 kts 77°
2026-05-05 20:24 -30.28754 140.42751 39260 ft 540 kts 76°
2026-05-05 20:25 -30.24047 140.71109 39229 ft 540 kts 76°
2026-05-05 20:25 -30.17374 141.10776 39249 ft 541 kts 76°
2026-05-05 20:26 -30.11561 141.44937 39245 ft 542 kts 76°
2026-05-05 20:26 -30.06621 141.73534 39246 ft 542 kts 75°
2026-05-05 20:27 -30.00642 142.07634 39243 ft 542 kts 75°
2026-05-05 20:27 -29.94611 142.41496 39241 ft 543 kts 75°
2026-05-05 20:28 -29.88449 142.75595 39239 ft 543 kts 75°
2026-05-05 20:28 -29.82168 143.09667 39233 ft 544 kts 74°
2026-05-05 20:29 -29.75799 143.43753 39228 ft 546 kts 74°
2026-05-05 20:29 -29.69327 143.77874 39233 ft 545 kts 74°
2026-05-05 20:30 -29.62762 144.11981 39230 ft 546 kts 73°
2026-05-05 20:30 -29.56099 144.46097 39225 ft 548 kts 73°
2026-05-05 20:31 -29.49350 144.80159 39216 ft 549 kts 73°
2026-05-05 20:31 -29.42494 145.14320 39213 ft 549 kts 72°
2026-05-05 20:32 -29.35520 145.48490 39206 ft 550 kts 72°
2026-05-05 20:32 -29.28457 145.82669 39206 ft 552 kts 72°
2026-05-05 20:33 -29.21299 146.16836 39177 ft 551 kts 71°
2026-05-05 20:33 -29.14035 146.51045 39201 ft 553 kts 71°
2026-05-05 20:34 -29.06671 146.85239 39199 ft 555 kts 71°
2026-05-05 20:34 -28.99200 147.19459 39189 ft 555 kts 71°
2026-05-05 20:35 -28.91650 147.53599 39183 ft 554 kts 71°
2026-05-05 20:35 -28.84007 147.87718 39176 ft 556 kts 70°
2026-05-05 20:36 -28.76313 148.21636 39174 ft 557 kts 70°
2026-05-05 20:36 -28.68414 148.56031 39167 ft 557 kts 70°
2026-05-05 20:37 -28.60519 148.89976 39162 ft 559 kts 69°
2026-05-05 20:37 -28.52480 149.24127 39160 ft 560 kts 69°
2026-05-05 20:38 -28.44340 149.58289 39151 ft 561 kts 69°
2026-05-05 20:38 -28.36064 149.92607 39147 ft 564 kts 69°
2026-05-05 20:39 -28.27682 150.26955 39135 ft 566 kts 68°
2026-05-05 20:39 -28.19167 150.61447 39132 ft 569 kts 68°
2026-05-05 20:40 -28.10533 150.95977 39134 ft 570 kts 68°
2026-05-05 20:40 -28.01814 151.30464 39094 ft 570 kts 68°
2026-05-05 20:41 -27.99532 151.39416 39130 ft 572 kts 67°
2026-05-05 20:41 -27.98425 151.43754 39009 ft 571 kts 67°
2026-05-05 20:41 -27.97324 151.48065 38533 ft 570 kts 67°
2026-05-05 20:41 -27.96225 151.52362 37881 ft 568 kts 67°
2026-05-05 20:42 -27.95127 151.56647 37235 ft 566 kts 68°
2026-05-05 20:42 -27.94032 151.60912 36594 ft 565 kts 68°
2026-05-05 20:42 -27.92936 151.65172 35926 ft 563 kts 68°
2026-05-05 20:42 -27.91842 151.69421 35259 ft 562 kts 68°
2026-05-05 20:43 -27.90751 151.73650 34539 ft 561 kts 68°
2026-05-05 20:43 -27.89655 151.77889 33744 ft 561 kts 68°
2026-05-05 20:43 -27.88561 151.82119 32908 ft 561 kts 69°
2026-05-05 20:43 -27.87506 151.86197 32096 ft 560 kts 69°
2026-05-05 20:44 -27.86415 151.90406 31292 ft 558 kts 69°
2026-05-05 20:44 -27.85324 151.94611 30453 ft 558 kts 69°
2026-05-05 20:44 -27.84232 151.98813 29534 ft 557 kts 69°
2026-05-05 20:44 -27.83143 152.02999 28749 ft 553 kts 69°
2026-05-05 20:45 -27.81004 152.11219 27536 ft 539 kts 69°
2026-05-05 20:45 -27.79955 152.15244 26940 ft 533 kts 69°
2026-05-05 20:45 -27.78913 152.19234 26359 ft 527 kts 69°
2026-05-05 20:46 -27.77880 152.23181 25760 ft 521 kts 69°
2026-05-05 20:46 -27.76857 152.27086 25177 ft 516 kts 69°
2026-05-05 20:46 -27.76194 152.31063 24611 ft 517 kts 83°
2026-05-05 20:46 -27.76359 152.35053 24046 ft 517 kts 98°
2026-05-05 20:47 -27.77403 152.38914 23411 ft 514 kts 114°
2026-05-05 20:47 -27.79288 152.42359 22775 ft 505 kts 131°
2026-05-05 20:47 -27.81661 152.45158 22241 ft 496 kts 138°
2026-05-05 20:47 -27.84302 152.47607 21658 ft 488 kts 145°
2026-05-05 20:48 -27.86959 152.49969 21092 ft 484 kts 143°
2026-05-05 20:48 -27.89513 152.52424 20524 ft 480 kts 140°
2026-05-05 20:48 -27.91837 152.55099 19958 ft 478 kts 128°
2026-05-05 20:48 -27.93477 152.58339 19370 ft 474 kts 110°
2026-05-05 20:49 -27.94251 152.61928 18813 ft 468 kts 93°
2026-05-05 20:49 -27.94102 152.65551 18260 ft 457 kts 75°
2026-05-05 20:49 -27.93060 152.68863 17717 ft 441 kts 57°
2026-05-05 20:49 -27.91255 152.71557 17279 ft 422 kts 39°
2026-05-05 20:50 -27.89105 152.73735 17138 ft 416 kts 37°
2026-05-05 20:50 -27.86912 152.75937 16879 ft 425 kts 37°
2026-05-05 20:50 -27.84698 152.78132 16368 ft 420 kts 37°
2026-05-05 20:50 -27.82488 152.80274 15746 ft 417 kts 37°
2026-05-05 20:51 -27.80285 152.82376 15123 ft 414 kts 37°
2026-05-05 20:51 -27.78085 152.84457 14471 ft 411 kts 37°
2026-05-05 20:51 -27.75897 152.86515 13814 ft 408 kts 38°
2026-05-05 20:51 -27.73731 152.88548 13124 ft 403 kts 38°
2026-05-05 20:52 -27.71587 152.90558 12479 ft 398 kts 38°
2026-05-05 20:52 -27.69473 152.92536 11851 ft 392 kts 38°
2026-05-05 20:52 -27.67386 152.94487 11219 ft 387 kts 38°
2026-05-05 20:52 -27.65364 152.96377 10871 ft 375 kts 38°
2026-05-05 20:53 -27.63398 152.98250 10737 ft 356 kts 41°
2026-05-05 20:53 -27.61842 153.00335 10587 ft 340 kts 56°
2026-05-05 20:53 -27.60678 153.02516 10420 ft 310 kts 59°
2026-05-05 20:53 -27.59670 153.04510 10279 ft 285 kts 59°
2026-05-05 20:54 -27.58725 153.06375 10146 ft 265 kts 59°
2026-05-05 20:54 -27.57793 153.08202 10036 ft 272 kts 59°
2026-05-05 20:54 -27.56842 153.10059 9874 ft 279 kts 59°
2026-05-05 20:54 -27.55851 153.11990 9803 ft 287 kts 59°
2026-05-05 20:55 -27.54854 153.13929 9346 ft 286 kts 59°
2026-05-05 20:55 -27.53671 153.15713 8926 ft 284 kts 45°
2026-05-05 20:55 -27.52217 153.17213 8598 ft 283 kts 41°
2026-05-05 20:55 -27.50735 153.18641 8311 ft 282 kts 40°
2026-05-05 20:56 -27.49246 153.20071 8016 ft 281 kts 41°
2026-05-05 20:56 -27.47765 153.21500 7719 ft 280 kts 41°
2026-05-05 20:56 -27.46296 153.22920 7493 ft 275 kts 41°
2026-05-05 20:56 -27.44861 153.24308 7273 ft 270 kts 41°
2026-05-05 20:57 -27.43455 153.25673 7006 ft 269 kts 42°
2026-05-05 20:57 -27.42123 153.26970 6788 ft 265 kts 41°
2026-05-05 20:57 -27.40813 153.28242 6692 ft 247 kts 42°
2026-05-05 20:57 -27.39562 153.29455 6549 ft 231 kts 42°
2026-05-05 20:58 -27.38382 153.30589 6287 ft 218 kts 43°
2026-05-05 20:58 -27.37268 153.31662 6038 ft 204 kts 43°
2026-05-05 20:58 -27.36145 153.32599 5855 ft 212 kts 32°
2026-05-05 20:58 -27.34722 153.33004 5728 ft 212 kts
2026-05-05 20:59 -27.33263 153.32813 5470 ft 210 kts 352°
2026-05-05 20:59 -27.31797 153.32507 5334 ft 217 kts 351°
2026-05-05 20:59 -27.30338 153.32204 5136 ft 210 kts 352°
2026-05-05 20:59 -27.28908 153.31916 4889 ft 211 kts 352°
2026-05-05 21:00 -27.27486 153.31503 4655 ft 215 kts 337°
2026-05-05 21:00 -27.26222 153.30562 4575 ft 219 kts 322°
2026-05-05 21:00 -27.25084 153.29504 4392 ft 212 kts 320°
2026-05-05 21:00 -27.23968 153.28448 4253 ft 202 kts 320°
2026-05-05 21:01 -27.22918 153.27461 4113 ft 191 kts 320°
2026-05-05 21:01 -27.21921 153.26530 3980 ft 182 kts 321°
2026-05-05 21:01 -27.21063 153.25537 3798 ft 174 kts 302°
2026-05-05 21:01 -27.20723 153.24288 3603 ft 165 kts 266°
2026-05-05 21:02 -27.21040 153.23102 3363 ft 157 kts 232°
2026-05-05 21:02 -27.21827 153.22312 3114 ft 150 kts 205°
2026-05-05 21:02 -27.22726 153.21820 2999 ft 140 kts 200°
2026-05-05 21:02 -27.23610 153.21359 2988 ft 146 kts 201°
2026-05-05 21:03 -27.24547 153.20831 2827 ft 152 kts 203°
2026-05-05 21:03 -27.25481 153.20291 2621 ft 150 kts 202°
2026-05-05 21:03 -27.26407 153.19762 2430 ft 148 kts 202°
2026-05-05 21:03 -27.27320 153.19240 2221 ft 147 kts 202°
2026-05-05 21:04 -27.28226 153.18722 2030 ft 145 kts 202°
2026-05-05 21:04 -27.29128 153.18205 1841 ft 146 kts 202°
2026-05-05 21:04 -27.30027 153.17691 1650 ft 144 kts 202°
2026-05-05 21:04 -27.30912 153.17184 1441 ft 142 kts 202°
2026-05-05 21:05 -27.31795 153.16682 1268 ft 143 kts 202°
2026-05-05 21:05 -27.32696 153.16198 1085 ft 145 kts 203°
2026-05-05 21:05 -27.33588 153.15685 907 ft 143 kts 206°
2026-05-05 21:05 -27.34452 153.15136 739 ft 142 kts 206°
2026-05-05 21:06 -27.35333 153.14635 528 ft 142 kts 205°
2026-05-05 21:06 -27.36223 153.14143 327 ft 143 kts 205°
2026-05-05 21:06 -27.37114 153.13637 166 ft 144 kts 207°
2026-05-05 21:06 -27.38000 153.13126 33 ft 138 kts 206°
2026-05-05 21:07 -27.38775 153.12683 27 ft 108 kts 207°
2026-05-05 21:07 -27.39318 153.12374 29 ft 48 kts 207°
2026-05-05 21:07 -27.39527 153.12255 27 ft 23 kts 207°
2026-05-05 21:07 -27.39647 153.12274 27 ft 19 kts 125°
2026-05-05 21:08 -27.39714 153.12409 27 ft 15 kts 119°
2026-05-05 21:08 -27.39764 153.12518 27 ft 12 kts 122°
2026-05-05 21:08 -27.39841 153.12529 27 ft 14 kts 201°
2026-05-05 21:08 -27.39937 153.12475 27 ft 17 kts 207°
2026-05-05 21:09 -27.40044 153.12413 27 ft 13 kts 207°
2026-05-05 21:09 -27.40122 153.12448 27 ft 15 kts 122°
2026-05-05 21:09 -27.40171 153.12520 27 ft 8 kts 146°
2026-05-05 21:09 -27.40197 153.12533 27 ft 5 kts 155°
2026-05-05 21:10 -27.40238 153.12554 27 ft 7 kts 156°
2026-05-05 21:10 -27.40250 153.12585 27 ft 4 kts 66°
2026-05-05 21:10 -27.40221 153.12612 27 ft 6 kts 11°
2026-05-05 21:10 -27.40206 153.12606 27 ft 0 kts 330°
2026-05-05 21:13 -27.40259 153.12506 27 ft 0 kts 208°
2026-05-05 21:13 -27.40208 153.12484 26 ft 0 kts 240°